Theta_e
321 329 345 348 344 349 348 340 339 339 345 355 348 345 350 347 345 348 349 353 358 358 360 364 362 357 355 355 357 355 352 351 352 353 353 350 344 340 342 345 347 345 344 345 345 345 346 347 348 349 349 350 350 351 351 351 352 351 351 350 350 351 352
323 325 340 349 341 348 352 342 342 347 347 351 351 348 349 346 343 346 349 354 353 347 352 362 363 360 359 357 356 353 351 351 351 351 352 352 347 342 341 344 345 344 344 344 345 346 346 346 348 348 349 350 350 351 351 351 352 352 351 350 350 351 352
325 328 342 352 342 341 352 351 350 349 345 343 341 342 346 346 345 348 348 351 352 348 354 364 364 361 360 359 357 355 352 351 350 350 351 352 350 345 341 343 345 344 344 344 345 346 346 346 347 348 349 350 350 351 351 351 351 351 350 350 351 352 353
324 327 339 343 335 330 337 342 345 345 342 340 337 337 341 340 342 347 343 344 352 353 357 369 370 363 359 358 358 357 354 352 350 349 351 351 351 349 343 342 344 344 343 344 345 345 346 346 347 348 348 349 351 351 351 351 351 351 351 351 352 353 353
324 323 326 326 324 325 327 326 331 333 333 336 336 335 338 339 342 346 342 343 352 353 353 364 368 362 359 357 355 355 352 351 350 349 351 351 351 350 346 342 343 343 342 344 345 345 346 346 346 347 348 348 350 351 351 352 352 351 352 352 353 353 353
324 326 325 322 322 323 325 329 331 327 324 329 331 332 337 340 341 343 341 342 350 352 352 359 360 358 358 353 351 353 352 351 352 351 351 351 351 351 347 343 341 341 341 343 345 346 346 346 347 347 348 348 349 351 351 352 352 352 352 353 353 353 354
326 327 326 325 325 324 327 334 337 335 335 336 333 332 337 336 336 341 341 337 343 349 353 359 359 359 358 352 348 350 352 352 353 355 355 353 351 351 349 346 342 339 339 341 344 345 346 346 347 347 348 348 349 350 351 352 352 352 352 353 353 353 354
342 334 332 330 328 331 332 332 338 342 346 346 337 334 339 338 337 341 338 335 342 351 355 358 359 360 362 359 355 353 354 355 354 357 360 358 355 353 352 350 345 340 338 341 343 344 345 346 346 347 348 349 350 350 351 351 352 352 353 353 353 354 354
340 333 337 337 333 335 332 331 340 345 348 350 341 332 336 338 338 341 337 336 343 351 355 357 358 360 362 363 361 358 358 359 357 358 360 359 358 357 355 354 351 347 344 343 343 344 345 345 346 347 348 349 350 351 351 352 352 353 353 353 354 354 354
330 331 340 339 335 338 338 339 345 345 346 351 343 331 330 334 337 338 337 339 346 353 357 358 359 360 363 363 359 355 356 357 356 358 358 357 357 356 355 354 351 350 348 345 344 344 345 345 347 348 349 350 351 351 352 352 352 353 354 354 354 354 354
329 336 346 342 337 342 345 346 349 347 346 349 345 333 330 334 336 339 342 347 353 358 360 359 359 359 361 362 358 354 356 355 354 356 357 355 354 353 353 353 351 350 350 347 345 345 346 346 346 348 349 350 351 351 352 353 353 353 354 354 354 354 355
332 338 345 342 343 347 346 344 349 349 346 349 349 344 341 338 329 330 344 353 355 357 357 355 356 357 357 359 358 355 356 356 354 355 356 355 354 352 352 353 352 352 351 349 346 346 347 347 347 348 349 350 351 352 353 353 353 353 354 354 355 355 355
337 338 338 341 347 348 343 341 347 351 349 349 352 351 351 346 332 331 347 355 357 357 356 353 354 354 355 356 356 355 354 354 353 353 354 355 354 353 353 353 353 354 354 351 348 347 347 347 347 348 349 350 351 352 352 353 353 354 354 354 355 355 355
335 336 337 341 346 347 343 339 342 349 350 348 350 349 351 351 347 348 354 357 358 358 355 354 352 351 353 353 353 354 355 354 354 352 352 353 352 352 353 353 353 355 355 351 348 348 348 347 348 349 349 350 351 352 353 353 354 354 354 355 355 355 355
327 335 338 339 343 346 346 344 344 349 352 351 350 348 349 353 354 355 356 357 359 356 352 352 352 351 353 353 354 356 355 355 355 351 350 352 353 353 353 353 353 353 353 350 348 348 348 348 348 349 349 350 351 352 353 353 354 354 355 355 355 355 355
324 332 338 342 345 340 339 345 348 350 355 354 350 347 347 350 353 355 355 355 357 356 352 352 351 350 351 352 354 356 355 354 354 353 353 354 354 354 353 352 353 353 353 350 348 348 348 348 349 349 349 350 350 352 352 353 354 354 354 355 355 355 354
323 330 340 346 345 336 335 342 342 345 353 352 349 349 347 345 348 354 354 351 351 353 352 351 351 350 350 351 352 353 354 354 353 354 354 354 354 354 353 352 352 351 350 349 348 347 348 348 349 349 350 350 350 351 351 352 352 352 352 353 353 353 352
322 335 345 342 338 337 339 340 339 345 351 350 348 349 346 344 345 347 347 345 345 348 350 350 349 348 349 351 350 350 352 353 353 352 351 350 350 349 348 348 348 346 345 346 346 347 347 347 348 348 349 349 349 349 350 349 350 350 351 351 350 349 350
326 342 346 335 335 342 340 337 340 344 346 346 347 345 343 343 343 343 343 342 341 344 347 348 346 345 346 347 347 347 348 349 349 349 347 345 344 343 343 343 343 342 341 343 344 345 346 346 346 347 347 348 348 348 347 347 348 348 349 349 348 348 349
325 336 336 329 333 340 336 335 339 341 341 342 343 345 346 345 343 344 345 342 341 342 343 344 344 344 343 343 343 344 343 344 345 344 343 341 340 340 340 339 339 339 339 340 341 342 344 345 346 346 347 347 346 347 347 347 347 347 347 347 347 347 348
329 338 338 336 336 336 336 338 339 341 345 344 344 348 352 348 345 345 344 342 343 343 343 343 343 343 344 344 344 342 340 340 340 339 339 338 337 337 337 336 336 336 337 338 338 339 341 342 344 345 346 346 346 346 346 346 346 347 346 346 346 346 347
335 345 344 341 341 342 343 343 339 339 343 343 341 344 348 348 345 343 341 342 344 344 345 345 343 344 349 348 345 342 340 339 338 337 337 336 335 335 334 334 334 334 335 335 336 337 338 338 340 342 342 343 344 344 344 345 345 345 344 344 345 346 347
337 344 344 341 342 345 348 346 340 336 338 339 336 337 344 348 344 342 342 343 343 344 345 344 343 348 352 349 344 342 339 337 337 336 335 334 333 332 332 331 331 332 333 333 334 335 335 335 337 339 339 339 339 338 338 340 342 342 342 343 344 345 345
339 340 341 342 340 338 340 343 342 338 336 335 335 338 345 346 341 341 345 344 343 344 343 342 343 348 350 348 343 340 337 336 336 334 333 333 332 331 331 330 330 331 332 332 332 332 332 333 336 336 337 336 334 333 334 335 335 335 335 337 340 341 341
343 337 334 337 339 338 339 344 346 340 334 333 338 343 346 345 341 341 344 343 344 345 344 343 342 342 343 343 339 336 335 335 334 332 331 331 330 330 330 329 328 329 329 329 329 329 330 333 334 335 335 333 331 331 332 332 331 331 332 334 335 336 336
340 340 337 335 335 335 337 340 341 336 333 337 344 344 342 343 343 341 341 343 344 344 343 342 341 340 340 338 336 334 333 332 331 330 330 329 329 328 328 327 326 326 326 326 327 327 328 330 332 334 334 331 328 329 329 328 328 330 331 331 331 332 333
335 339 338 335 332 330 332 334 335 335 337 343 347 343 339 340 341 339 342 344 342 341 341 340 340 341 339 336 335 334 332 330 329 328 328 328 327 327 327 326 325 325 325 326 326 325 326 327 327 330 330 327 326 326 326 325 327 329 328 327 328 329 330
339 342 341 338 336 332 331 332 337 342 342 340 344 346 343 341 339 339 342 343 341 339 340 339 339 339 336 335 335 334 332 331 329 326 325 326 326 326 326 325 325 326 326 326 326 326 325 325 325 326 327 325 325 325 324 325 326 326 325 324 325 325 326
338 342 340 337 333 330 330 330 333 340 340 337 340 347 347 343 340 341 342 341 339 337 337 338 338 337 336 336 334 333 334 332 328 325 324 325 325 326 325 325 326 326 325 325 325 325 325 325 325 325 325 325 325 325 324 324 323 323 323 322 321 321 322
333 334 333 333 332 331 331 330 329 331 334 334 335 340 344 343 341 341 341 339 337 336 337 338 338 337 336 336 334 333 334 331 327 324 323 325 326 326 325 325 326 326 325 324 325 325 325 325 325 325 325 325 325 324 323 322 322 322 322 321 321 321 321
334 336 334 334 333 331 331 333 333 332 332 332 329 331 337 340 339 337 337 337 337 337 337 338 338 337 337 336 335 335 335 332 327 323 323 324 325 326 326 326 326 326 325 325 325 325 325 325 325 325 325 324 324 324 323 322 322 322 321 320 320 320 320
335 335 333 331 330 330 330 334 338 337 336 334 330 327 330 335 336 335 334 334 336 337 337 338 338 337 337 337 337 337 336 331 325 323 323 323 325 326 326 326 326 326 325 325 325 324 324 324 324 324 324 324 324 324 324 323 322 321 320 320 320 320 320
332 330 330 330 332 332 331 332 334 333 333 335 332 327 327 330 332 333 333 333 334 334 335 337 338 338 337 335 336 338 337 330 324 323 323 323 324 324 324 325 325 324 324 324 323 323 323 323 322 323 324 324 324 324 323 323 323 322 321 322 322 320 320
337 336 335 334 335 336 335 334 332 329 330 332 330 327 328 330 330 330 331 332 331 331 331 333 337 340 338 332 331 334 332 327 324 324 324 324 323 323 323 324 324 323 322 322 323 324 324 323 323 323 323 322 321 320 319 321 323 322 321 322 322 321 319
344 339 335 333 335 336 334 331 331 330 331 332 330 328 329 331 329 328 329 331 331 331 331 330 333 337 335 331 330 330 327 325 325 325 324 324 323 323 324 324 324 323 322 322 323 325 326 324 323 323 322 321 321 319 318 319 321 322 322 322 321 320 320
336 331 331 332 333 332 329 329 333 334 332 330 330 329 328 328 328 328 329 329 329 330 331 330 329 331 330 328 329 328 325 325 325 325 324 325 324 324 324 325 325 324 322 321 322 324 325 325 324 323 322 322 321 321 320 319 319 320 322 322 322 320 319
329 328 330 330 330 330 328 326 328 328 326 326 327 327 326 326 326 326 327 327 327 329 331 330 328 329 329 328 328 327 326 326 326 325 325 325 324 324 325 325 324 324 323 322 322 323 324 325 324 323 323 323 322 322 322 321 320 319 319 320 321 320 319
Wind_Speed
2 4 4 5 5 4 0 1 1 3 3 6 4 1 1 3 1 2 2 2 3 2 3 2 5 6 9 9 9 11 11 9 9 8 8 8 9 10 11 11 10 12 17 20 22 24 25 25 26 28 29 31 32 32 31 32 31 30 29 29 28 28 26
6 3 4 5 4 4 4 1 3 2 1 3 4 1 2 3 0 2 2 3 3 1 2 1 5 6 8 9 9 11 11 10 10 10 9 10 10 11 12 12 11 13 17 20 22 24 26 28 29 30 32 33 33 33 32 32 31 30 30 29 29 28 27
7 4 5 4 1 2 5 5 1 3 1 2 1 1 0 1 1 3 2 3 3 3 3 2 5 7 9 10 10 11 12 12 11 10 10 10 10 9 10 10 10 12 16 21 23 25 27 28 30 31 32 32 31 31 32 31 31 31 30 29 28 28 27
5 5 5 1 3 4 2 2 2 3 4 4 2 2 2 2 1 2 2 2 3 4 3 5 8 9 9 11 10 10 12 13 11 10 10 10 10 9 9 10 10 11 17 23 25 27 28 29 30 30 30 29 29 30 30 30 30 29 29 29 28 28 28
3 2 1 1 1 1 1 2 2 2 2 3 3 2 1 3 2 2 1 2 4 4 2 4 7 8 9 10 10 10 12 13 13 12 11 9 9 10 10 10 10 12 18 23 26 28 29 29 29 29 29 29 29 29 29 29 29 28 28 29 28 28 28
3 3 3 1 1 3 3 2 1 2 3 3 3 3 2 2 3 3 3 2 5 3 2 4 4 5 7 8 9 9 9 11 12 11 12 11 10 10 10 11 10 12 17 22 25 26 26 25 26 27 28 29 28 28 29 29 29 29 29 29 29 29 28
4 8 7 3 2 1 3 2 3 1 1 1 3 3 3 0 1 1 2 1 5 3 4 4 1 2 3 6 8 8 8 9 10 9 9 9 10 10 11 11 10 13 19 22 23 24 24 24 24 24 25 26 28 29 30 29 29 30 30 30 30 30 29
5 7 7 4 3 4 3 2 3 2 2 2 3 4 2 1 1 1 1 2 4 3 5 5 2 3 3 1 4 6 5 4 6 8 8 8 8 9 9 9 9 12 17 19 20 22 23 24 24 24 24 25 25 26 27 28 30 31 31 30 30 30 29
5 6 6 5 4 4 2 3 4 3 4 5 2 2 1 1 3 3 3 3 4 3 5 5 4 4 4 4 3 2 3 1 1 3 5 6 7 8 8 8 8 9 12 15 18 21 24 26 26 26 27 27 26 26 26 27 28 29 29 30 30 30 30
2 1 2 2 3 3 2 3 6 6 8 8 2 2 2 1 3 3 4 3 3 3 4 6 5 4 4 4 6 4 1 2 3 2 3 4 5 6 7 7 7 8 10 13 17 21 23 25 27 28 28 29 29 29 28 27 27 26 26 27 27 28 28
6 6 5 5 2 1 2 5 7 7 8 8 3 2 2 1 2 1 3 3 1 1 4 5 5 4 4 4 5 4 1 1 2 3 2 2 3 4 5 5 5 6 6 8 13 19 23 25 27 29 29 30 31 30 28 28 28 26 24 24 25 26 26
4 5 4 4 3 4 1 3 6 7 7 9 8 4 2 2 1 3 5 2 2 1 3 4 4 4 4 4 4 4 2 2 2 4 4 3 2 3 4 4 4 4 3 4 6 11 17 21 25 27 28 29 31 31 31 31 31 31 29 27 27 27 27
3 1 2 4 2 5 3 2 4 6 6 9 9 6 3 1 2 3 4 2 2 1 3 4 4 4 4 4 4 4 5 4 3 4 5 4 4 2 3 4 3 3 3 3 4 6 9 14 19 22 23 25 26 28 29 30 31 31 32 31 30 29 28
3 2 3 3 1 4 3 2 3 4 3 6 7 6 6 3 3 2 1 4 4 3 3 3 3 3 3 2 3 3 5 6 6 6 5 4 2 1 2 3 3 4 4 4 6 8 8 10 14 17 20 21 23 25 27 28 29 29 30 30 30 30 30
2 3 2 2 1 3 2 2 3 4 3 4 5 5 5 4 3 4 4 4 4 3 3 4 4 3 3 3 4 4 4 6 8 8 6 4 4 3 2 3 4 4 5 6 8 10 12 13 13 15 17 20 22 23 25 26 28 28 29 29 29 30 29
3 3 4 4 1 4 3 3 4 4 3 2 2 3 3 4 3 1 1 1 1 1 3 4 5 5 6 6 5 6 5 5 7 8 7 6 6 5 5 4 4 5 5 6 7 9 11 12 13 14 16 18 21 23 24 23 23 24 26 27 27 25 22
3 4 4 3 2 4 3 4 2 1 0 0 2 1 4 4 4 2 1 1 2 3 5 5 6 6 6 5 4 4 4 4 6 7 7 7 6 5 5 5 5 5 5 6 8 10 10 11 12 14 16 19 21 22 22 22 21 21 21 20 21 21 17
3 5 4 3 3 1 4 5 2 3 3 2 1 1 3 4 3 1 0 2 2 4 7 5 5 5 4 3 3 2 2 2 4 5 5 5 5 4 4 4 4 4 6 8 9 12 14 14 14 13 15 16 16 16 18 20 21 22 20 17 16 18 17
1 3 5 3 2 4 5 5 4 2 5 5 3 0 1 3 2 2 2 2 3 2 3 5 4 2 5 5 5 6 5 3 4 6 6 6 7 7 6 6 6 6 8 10 10 10 12 14 13 11 11 12 12 13 16 18 18 18 18 15 14 15 15
0 2 3 2 5 6 4 5 4 1 3 4 3 2 4 3 4 4 2 1 3 2 1 2 6 5 3 5 6 8 9 7 6 6 6 7 8 7 6 7 7 7 8 9 10 9 10 13 14 13 13 14 13 14 16 17 16 16 16 14 12 12 12
1 2 1 2 3 4 3 3 3 2 2 3 4 1 5 4 5 5 4 4 4 3 1 2 1 6 4 3 4 7 9 9 9 8 8 9 9 8 9 9 9 8 9 9 9 10 10 12 14 15 16 16 16 15 16 16 16 15 15 14 13 12 11
2 4 1 2 3 2 4 5 3 1 3 5 6 3 4 5 5 6 6 7 5 3 2 2 3 3 5 2 4 6 8 8 9 10 10 11 11 11 11 11 11 12 11 11 12 13 14 13 11 12 14 16 19 19 19 20 19 17 15 14 14 12 11
2 4 2 2 2 3 6 6 5 2 3 5 6 4 4 5 6 7 6 7 7 4 2 1 3 1 4 1 2 3 7 8 9 9 9 11 13 14 14 14 14 15 15 15 15 16 16 13 10 11 13 16 18 17 16 18 19 18 17 16 14 13 11
3 4 2 2 3 3 4 5 5 3 3 6 7 2 5 5 5 6 6 6 6 4 2 3 3 1 3 4 1 3 6 8 9 10 9 10 13 14 14 15 15 15 16 17 17 17 16 12 10 12 15 18 20 18 18 18 18 16 15 16 17 16 14
3 4 2 2 4 4 5 5 5 4 3 5 4 3 6 4 5 4 4 5 4 3 3 2 1 1 2 6 6 5 6 8 10 11 12 14 15 15 15 15 16 17 17 17 18 17 15 13 12 14 18 21 22 21 22 22 21 18 18 18 18 17 17
2 3 2 1 4 4 4 3 3 3 3 2 3 5 3 3 6 4 3 4 4 3 3 3 2 3 6 8 8 6 7 7 8 9 12 14 14 16 17 16 17 17 16 16 18 17 16 15 15 17 21 24 24 23 23 21 18 18 19 18 18 19 19
2 2 2 1 2 3 2 3 1 2 3 4 4 1 2 2 5 4 3 3 4 4 4 5 6 8 8 8 8 7 7 7 7 9 10 11 11 13 16 17 17 17 16 17 18 18 17 17 18 19 22 24 24 24 23 19 16 18 19 18 17 18 19
3 3 1 3 4 4 2 2 3 3 4 4 4 3 1 1 4 4 3 2 3 5 7 8 9 9 8 8 8 7 6 6 7 8 10 10 11 12 14 15 16 17 17 18 18 18 18 19 19 21 23 23 23 22 20 16 15 16 16 15 15 16 17
3 5 5 4 3 3 3 3 3 3 4 3 1 4 3 3 3 4 4 3 3 6 9 9 8 7 6 7 6 6 6 6 6 8 10 12 12 12 13 14 15 16 17 18 18 18 18 18 19 20 21 22 21 19 16 15 15 15 15 15 16 17 17
1 2 3 1 1 3 3 2 2 1 4 5 4 2 1 4 4 4 5 5 5 6 8 8 7 5 6 6 6 6 6 6 7 10 12 13 14 14 13 13 14 15 16 17 18 18 17 17 17 17 18 20 19 17 15 14 14 14 14 15 16 16 15
1 1 2 2 2 4 4 1 1 4 7 7 8 7 3 2 6 6 6 7 7 6 6 8 8 6 7 7 6 5 6 6 8 11 12 12 14 14 13 13 14 15 16 16 16 17 17 15 15 16 17 17 17 15 14 13 12 12 13 15 15 14 14
2 3 4 2 2 4 4 1 3 4 6 7 9 9 7 4 5 5 7 9 7 5 6 8 8 7 7 7 6 5 5 6 8 10 12 13 15 14 13 13 14 14 15 16 16 16 16 14 14 15 16 16 15 15 15 14 12 12 13 13 13 13 13
1 3 3 2 1 2 5 3 5 5 5 7 9 9 8 8 8 5 3 7 8 7 7 8 9 8 6 6 7 6 5 5 8 10 13 15 15 15 14 14 14 15 15 15 15 15 15 14 14 15 15 15 14 14 14 13 12 13 12 11 11 12 12
1 4 5 4 3 2 1 1 4 5 6 10 8 5 4 6 9 9 8 5 5 7 7 8 9 8 5 7 8 7 6 7 9 11 13 14 14 14 15 15 15 16 16 15 15 15 14 13 14 14 14 13 13 13 12 11 11 12 13 11 11 11 11
5 6 7 6 5 4 3 4 4 5 6 8 6 4 2 5 6 4 6 7 4 7 6 7 10 8 6 9 11 8 7 10 12 12 13 13 12 12 12 13 14 14 14 13 13 13 12 12 12 12 12 12 12 13 12 10 9 10 11 11 11 9 8
2 4 7 6 4 5 6 6 6 7 7 7 6 5 3 3 5 8 7 4 3 5 8 8 11 12 11 12 12 10 9 11 13 12 12 12 12 10 10 11 12 12 12 11 11 11 10 9 9 10 10 10 10 11 12 12 11 9 9 9 8 6 5
2 4 6 5 4 6 7 4 4 6 9 10 7 5 6 6 7 12 10 2 1 7 10 9 11 15 16 15 14 14 12 12 13 14 13 11 10 9 9 9 10 10 10 10 9 9 8 7 7 8 9 10 9 10 11 13 13 13 12 11 9 7 5
Wind_Direction
262 228 197 148 134 151 156 38 191 235 181 125 109 250 212 93 93 234 206 252 288 291 262 189 135 158 172 177 191 200 203 192 176 180 183 183 185 184 186 188 187 189 189 188 188 188 190 191 193 194 196 198 199 200 201 202 204 207 209 211 211 212 216
303 258 152 139 141 133 125 213 248 262 26 73 107 129 357 53 159 262 213 238 279 290 282 210 140 158 170 175 187 201 203 191 187 192 184 184 189 187 188 188 185 187 188 190 191 192 193 193 195 198 199 201 202 202 202 202 203 206 209 211 212 213 217
309 349 89 125 280 64 132 180 210 77 66 318 1 133 77 124 224 283 271 268 260 212 222 210 184 184 176 174 183 197 203 196 193 194 185 185 188 186 186 185 185 188 189 191 193 194 196 197 198 201 202 202 202 203 204 204 206 209 211 212 213 215 218
325 12 61 133 290 341 64 116 78 104 166 211 248 209 166 161 201 261 292 314 265 232 228 205 200 194 180 178 182 194 204 200 194 193 187 184 182 181 184 184 187 190 190 194 195 195 197 198 200 202 202 202 203 204 204 206 208 210 212 213 215 216 218
358 25 24 171 229 291 354 73 119 189 212 210 243 255 149 138 159 193 236 298 264 261 275 227 213 197 184 183 185 193 201 198 194 193 188 181 178 181 184 184 188 192 193 195 197 198 199 198 200 201 201 203 205 205 205 206 208 209 211 213 215 217 219
355 268 262 246 236 209 173 115 115 236 243 206 225 277 292 120 129 166 165 236 268 284 322 276 236 197 188 187 189 195 196 194 194 193 188 181 176 180 184 185 187 191 194 195 196 198 199 198 199 200 201 202 203 205 207 207 208 209 211 214 216 218 219
273 268 283 318 320 204 137 85 36 354 287 118 148 229 264 10 95 167 140 233 268 289 333 318 300 155 174 189 200 203 197 193 190 185 181 176 175 179 182 183 186 189 193 194 193 193 194 196 198 200 201 201 203 206 208 207 208 211 213 215 217 218 218
302 300 316 343 11 54 68 6 11 35 318 294 205 202 197 168 211 183 93 272 267 303 339 341 36 90 84 103 222 208 194 194 187 177 167 165 171 175 177 180 182 185 187 188 187 187 188 191 194 196 198 202 205 207 208 209 210 212 213 214 215 216 217
345 339 344 350 358 32 55 299 330 359 340 329 276 216 91 218 224 149 131 245 265 302 343 1 30 72 73 31 16 122 135 122 159 153 146 157 167 168 172 175 172 174 178 179 183 184 186 187 189 191 194 198 202 205 207 210 212 213 213 212 213 214 215
162 215 287 291 303 335 341 310 328 352 5 6 338 190 109 209 240 144 151 220 263 307 353 14 15 35 60 40 48 76 139 181 142 98 110 154 166 164 168 170 170 176 178 178 181 182 184 185 186 187 191 194 197 200 203 206 210 213 213 212 211 212 213
172 174 206 220 196 26 337 324 335 353 8 12 20 95 98 221 268 269 228 216 163 315 348 12 5 12 30 38 68 84 346 287 116 100 93 132 152 155 156 156 165 179 185 186 183 182 182 183 185 187 189 191 193 194 197 201 205 208 210 212 212 211 211
200 164 194 226 156 128 196 320 344 355 8 26 37 29 332 262 277 299 294 329 94 228 315 358 358 359 7 17 51 89 96 33 50 71 65 54 73 118 134 141 152 161 172 186 189 190 186 181 181 185 188 191 192 191 194 198 201 203 205 208 210 211 211
288 170 248 272 173 144 145 32 1 349 14 41 38 6 336 85 156 247 293 17 95 218 344 6 2 359 2 12 27 65 102 102 95 92 81 59 42 63 130 134 122 119 133 145 159 187 191 180 177 181 185 189 191 191 193 196 199 201 202 203 205 209 210
322 302 275 289 142 136 129 65 11 346 34 64 49 14 358 34 117 162 61 80 81 40 16 16 18 20 24 39 37 53 90 105 108 106 99 91 75 65 140 137 126 120 123 134 143 158 179 185 179 178 182 186 188 190 192 194 196 199 199 199 201 205 209
304 306 342 338 46 102 97 37 13 5 31 66 62 37 356 347 73 99 98 96 74 49 43 29 30 47 62 66 54 45 63 89 100 108 122 141 148 156 151 141 137 131 128 136 146 159 174 185 185 182 184 186 187 190 193 195 196 197 197 198 200 203 207
266 306 359 326 341 72 29 336 353 4 23 54 55 55 21 342 336 11 70 65 28 93 103 54 41 46 43 41 43 44 52 74 93 110 131 147 156 162 156 151 149 149 149 150 154 162 170 178 183 186 187 188 190 193 193 194 194 192 193 196 196 198 205
259 295 348 335 23 46 330 286 291 296 208 2 334 29 49 11 333 334 30 313 327 70 85 54 38 42 40 29 19 34 53 66 82 100 115 125 138 148 151 156 158 151 137 130 144 156 162 170 181 188 193 195 198 199 194 192 189 184 185 189 188 190 205
252 289 344 21 30 349 250 256 247 174 159 130 84 24 35 37 19 358 25 296 333 73 86 70 27 5 10 16 351 353 34 71 90 89 84 88 89 80 90 103 99 100 107 121 147 163 168 173 179 186 191 192 192 190 185 182 180 179 181 185 185 188 203
214 314 23 45 270 244 243 280 289 155 127 111 103 307 298 93 114 216 244 307 321 12 96 116 110 8 353 21 31 20 18 40 93 91 72 64 66 62 66 75 78 90 110 125 142 157 169 177 178 176 178 178 170 160 158 161 164 168 173 176 178 182 189
229 29 67 155 248 260 269 290 282 172 92 72 61 317 271 178 163 194 191 249 275 278 334 111 122 110 24 6 29 34 28 33 64 80 73 63 66 68 66 68 73 83 100 117 129 138 155 170 174 174 174 172 162 149 149 154 157 160 164 164 169 177 176
162 119 156 254 302 310 279 255 233 184 160 141 126 250 270 226 182 179 170 184 209 189 80 334 80 108 87 350 9 39 41 45 57 63 63 61 60 56 53 57 68 79 92 105 111 113 120 138 160 175 175 168 159 151 152 158 161 164 166 163 166 176 177
111 97 53 332 358 318 257 246 254 222 164 148 129 114 284 249 190 177 175 173 181 174 143 308 312 73 86 9 339 33 47 52 60 62 59 58 58 52 49 51 51 55 66 77 86 96 98 102 125 150 155 153 150 146 147 153 157 159 161 161 162 163 159
115 111 117 182 203 247 247 240 254 249 157 129 99 63 299 249 182 171 180 168 163 176 170 339 317 28 103 132 304 34 60 59 64 69 63 57 57 56 57 59 57 55 62 69 75 82 82 81 95 113 121 127 125 119 122 133 138 138 139 141 141 136 127
154 136 146 210 222 250 251 235 239 224 148 106 86 50 278 244 175 169 179 163 152 153 107 42 353 304 139 145 131 68 75 74 73 79 79 71 65 61 57 60 67 72 75 75 73 69 69 75 88 97 102 102 95 86 87 94 94 92 99 107 111 110 107
150 150 165 254 254 246 241 236 227 197 134 87 96 211 236 203 167 178 170 147 135 126 112 95 20 315 101 115 109 91 83 81 78 81 83 81 78 73 67 63 67 72 73 73 72 70 73 84 90 93 95 90 84 84 85 85 84 86 91 96 98 100 100
138 150 145 302 275 245 202 196 215 176 149 158 203 225 236 150 152 167 150 140 139 128 125 133 130 106 97 100 103 97 90 87 86 86 85 84 83 84 82 77 73 74 73 74 74 74 78 87 90 93 93 85 80 81 79 76 84 93 94 93 93 95 95
120 84 76 91 255 253 164 132 148 145 167 207 212 222 357 81 134 140 136 148 152 135 123 121 114 105 98 101 105 101 95 91 89 88 86 84 84 85 86 85 84 84 79 75 75 76 80 86 88 90 90 84 80 80 78 76 84 90 89 87 87 87 88
129 120 184 202 217 248 256 176 189 207 220 219 182 142 81 90 125 130 134 165 161 134 122 114 109 106 106 111 111 106 100 97 92 91 92 91 88 86 88 92 95 93 86 81 79 80 83 87 88 88 88 83 78 77 77 79 84 87 88 87 84 82 82
164 176 214 231 230 257 279 244 225 262 301 299 189 158 151 138 142 142 136 148 152 130 120 113 108 109 112 112 112 108 105 102 100 101 100 100 100 98 96 99 99 95 91 90 88 86 85 86 86 88 89 87 83 79 80 83 85 88 92 92 89 87 83
214 201 219 269 335 313 303 263 227 12 18 5 349 328 159 136 134 137 134 137 136 128 124 121 114 116 119 113 110 111 107 104 104 103 102 105 109 109 106 106 106 103 99 96 92 88 85 85 85 84 84 84 82 81 82 81 82 86 91 92 90 86 81
99 232 292 2 334 283 290 298 75 46 42 33 10 340 309 127 122 134 138 130 126 127 128 125 123 127 126 119 114 111 107 106 106 105 106 108 111 114 115 115 115 113 106 98 92 87 83 81 81 80 77 76 76 76 74 71 73 80 83 84 83 78 74
124 237 275 307 262 267 300 28 82 57 44 42 25 351 332 18 81 126 133 125 132 151 143 131 128 128 126 124 123 116 103 101 103 107 112 113 112 116 121 121 120 117 110 103 97 92 87 83 81 80 76 72 70 68 65 62 66 73 75 74 72 69 65
58 256 252 247 242 323 350 27 78 79 72 61 36 354 339 17 27 13 80 120 142 159 154 139 127 123 128 131 125 116 104 99 103 109 114 115 114 117 122 122 121 117 112 108 102 95 91 90 89 86 81 74 66 60 56 52 54 60 63 62 60 56 53
222 230 206 188 158 115 301 288 94 89 83 77 60 335 321 45 40 8 1 29 94 118 139 148 136 126 129 128 119 109 105 110 113 115 115 111 108 110 115 116 114 111 110 109 103 95 91 91 91 87 81 72 62 54 49 46 48 53 55 55 55 56 55
222 213 186 173 141 131 209 209 138 111 92 92 116 210 208 104 102 73 12 351 28 75 92 127 134 130 123 119 116 106 103 118 124 124 122 117 109 105 106 104 101 100 101 101 98 93 89 86 84 81 75 69 62 55 51 50 51 53 55 56 58 60 58
227 193 172 174 155 140 172 187 159 133 122 130 164 180 146 130 132 109 81 353 339 79 77 86 112 120 119 118 119 115 112 121 124 122 123 124 122 118 113 104 97 94 95 94 93 92 88 82 77 71 64 61 57 50 46 44 46 48 49 52 57 60 56
177 169 154 163 154 133 138 150 134 129 142 150 155 152 145 147 129 112 111 134 227 106 94 80 91 109 114 114 115 113 107 108 115 118 119 121 124 127 126 117 106 99 94 91 89 87 81 73 66 57 51 47 43 38 35 34 35 37 37 39 44 46 42